#timestamp,LO_Frequency,Hit,StdDev 
1513490415.2,286046994.3,N
1513490435.9,286046991.1,N
1513490455.7,286046987.6,N
1513490475.5,286046986.4,N
1513490495.4,286046985.9,N
1513490515.2,286046988.1,N
1513490535.0,286046990.4,N
1513490535.9,286046990.4,N
1513490555.8,286046994.4,N
1513490575.6,286046988.6,N
1513490595.4,286046988.2,N
1513490615.3,286046986.4,N
1513490635.1,286046985.1,N
1513490636.0,286046985.1,N
1513490655.8,286046982.7,N
1513490675.7,286046983.7,N
1513490695.5,286046986.0,N
1513490715.3,286046985.0,N
1513490735.2,286046981.4,N
1513490755.9,286046982.6,N
1513490775.7,286046984.1,N
1513490795.6,286046981.6,N
1513490815.4,286046980.8,Y
1513490835.2,286046990.7,P
1513490855.1,286046994.4,P
1513490856.0,286046994.4,N
1513490875.8,286046997.6,N
1513490895.6,286046993.5,N
1513490915.5,286046992.7,N
1513490935.3,286046996.0,N
1513490955.1,286046996.6,N
1513490975.8,286047002.3,N
1513490995.7,286046998.6,N
1513491015.5,286046999.4,N
1513491035.3,286046997.9,N
1513491055.2,286046997.8,N
1513491075.9,286046996.3,N
1513491095.7,286046996.4,N
1513491115.6,286046994.4,N
1513491135.4,286046992.0,N
1513491155.2,286046989.0,Y
1513491175.1,286046991.7,P
1513491176.0,286046991.7,P
1513491195.8,286046993.2,P
1513491215.6,286046990.5,Y
1513491235.5,286047001.2,P
1513491255.3,286047000.3,N
1513491275.1,286047000.1,N
1513491295.9,286047001.6,N
1513491315.7,286047001.7,N
1513491335.5,286047001.9,N
1513491355.4,286047001.1,N
1513491375.2,286047002.7,N
1513491395.0,286047000.3,N
1513491395.9,286047000.3,N
1513491415.7,286046997.4,N
1513491435.6,286046994.3,N
1513491455.4,286046992.1,N
1513491475.2,286046990.5,N
1513491495.1,286046991.2,N
1513491496.0,286046991.2,N
1513491515.8,286046993.1,N
1513491535.6,286046993.3,N
1513491555.5,286046993.5,N
1513491575.3,286046992.6,N
1513491595.1,286046992.7,N
1513491615.9,286046992.5,N
1513491635.7,286046993.5,N
1513491655.5,286046995.4,N
1513491675.3,286046996.3,N
1513491695.2,286047000.4,N
1513491715.0,286047001.3,N
1513491715.9,286047001.3,N
1513491735.7,286046999.2,N
1513491755.6,286046997.0,N
1513491775.4,286046996.9,N
1513491795.2,286046995.8,N
1513491815.1,286046993.4,N
1513491816.0,286046993.4,N
1513491835.8,286046992.9,N
1513491855.6,286046993.5,N
1513491875.5,286046995.5,N
1513491895.3,286046995.9,N
1513491915.1,286046991.4,N
1513491935.9,286046988.2,Y
1513491955.7,286046992.4,P
1513491975.5,286046991.0,P
1513491995.4,286046987.1,P
1513492015.2,286046985.6,Y
1513492035.0,286046993.8,P
1513492035.9,286046993.8,P
1513492055.8,286046992.5,P
1513492075.6,286046995.9,Y
1513492095.4,286047003.3,P
1513492115.3,286047005.6,N
1513492135.1,286047003.8,N
1513492136.0,286047003.8,N
1513492155.8,286047001.8,N
1513492175.7,286047003.8,N
1513492195.5,286047002.0,N
1513492215.3,286047005.2,N
1513492235.2,286047004.2,N
1513492255.9,286047004.4,N
1513492275.7,286047004.2,N
1513492295.6,286047000.7,N
1513492315.4,286047000.8,N
1513492335.2,286047002.0,N
1513492355.0,286047000.9,N
1513492356.0,286047000.9,N
1513492375.8,286046997.2,N
1513492395.6,286047001.0,N
1513492415.4,286046997.9,N
1513492435.3,286046996.0,N
1513492455.1,286046997.3,N
1513492475.8,286046997.6,N
1513492495.7,286046996.8,N
1513492515.5,286047002.5,N
1513492535.3,286047003.8,N
1513492555.2,286047008.4,N
1513492575.9,286047008.2,N
1513492595.7,286047011.8,Y
1513492615.6,286047011.8,P
1513492635.4,286047011.7,N
1513492655.2,286047007.7,N
1513492675.1,286047012.9,Y
1513492676.0,286047012.9,P
1513492695.8,286047008.7,P
1513492715.6,286047013.6,P
1513492735.5,286047011.1,Y
1513492755.3,286047003.6,P
1513492775.1,286047001.4,N
1513492795.9,286046999.7,N
1513492815.7,286047002.8,N
1513492835.5,286047002.8,N
1513492855.4,286047000.6,N
1513492875.2,286046998.6,N
1513492895.0,286047000.7,N
1513492895.9,286047000.7,N
1513492915.7,286046998.8,N
1513492935.6,286047004.4,N
1513492955.4,286047000.9,N
1513492975.2,286046995.1,N
1513492995.1,286046996.7,N
1513492996.0,286046996.7,N
1513493015.8,286047002.3,N
1513493035.6,286046999.7,N
1513493055.5,286046994.2,N
1513493075.3,286046993.8,N
1513493095.1,286046997.4,N
1513493115.9,286047002.0,N
1513493135.7,286046999.9,N
1513493155.5,286046998.5,N
1513493175.4,286046995.8,N
1513493195.2,286046995.9,N
1513493215.0,286046999.1,N
1513493215.9,286046999.1,N
1513493235.7,286046998.9,N
1513493255.6,286046998.4,N
1513493275.4,286047000.2,N
1513493295.2,286047002.0,N
1513493315.1,286047004.1,N
1513493316.0,286047004.1,N
1513493335.8,286047002.2,N
1513493355.6,286047004.6,N
1513493375.5,286047008.1,N
1513493395.3,286047008.3,N
1513493415.1,286047005.0,N
1513493435.9,286047004.3,N
1513493455.7,286047002.6,N
1513493475.5,286047000.8,N
1513493495.3,286046998.2,N
1513493515.2,286046999.9,N
1513493535.0,286047002.1,N
1513493535.9,286047002.1,N
1513493555.7,286047003.9,N
1513493575.6,286047001.4,N
1513493595.4,286047000.4,N
1513493615.2,286046999.2,N
1513493635.1,286047002.7,N
1513493636.0,286047002.7,N
1513493655.8,286047001.5,N
1513493675.6,286047003.8,N
1513493695.5,286047004.0,N
1513493715.3,286047001.3,N
1513493735.1,286047003.8,N
1513493755.9,286047005.3,N
1513493775.7,286047004.5,N
1513493795.5,286047006.4,N
1513493815.4,286047005.4,N
1513493835.2,286047005.9,N
1513493855.0,286047006.0,N
1513493855.9,286047006.0,N
1513493875.8,286046998.9,N
1513493895.6,286047001.2,N
1513493915.4,286047000.7,N
1513493935.2,286046999.0,N
1513493955.1,286047001.2,N
1513493956.0,286047001.2,N
1513493975.8,286046999.8,N
1513493995.6,286047001.1,N
